Regional Weather Roundup
Issued by NWS Upton, NY

Current Version | Previous Version | Text Only | Print | Product List | Glossary Off
Versions: 1 2 3 4 5 6 7 8 9 10 11 12 13 14 15 16 17 18 19 20 21 22 23 24 25 26 27 28 29 30 31 32 33 34 35 36 37 38 39 40 41 42 43 44 45 46 47 48 49 50
000 ASUS41 KOKX 021108 RWROKX REGIONAL WEATHER ROUNDUP NATIONAL WEATHER SERVICE NEW YORK NY 700 AM EDT TUE JUN 02 2015 NOTE: "FAIR" INDICATES FEW OR NO CLOUDS BELOW 12,000 FEET WITH NO SIGNIFICANT WEATHER AND/OR OBSTRUCTIONS TO VISIBILITY. NYZ071-072-176-178-NJZ106-104-021200- NEW YORK CITY METRO AREA CITY SKY/WX TMP DP RH WIND PRES REMARKS CENTRAL PARK CLOUDY 51 48 89 NE7 30.14R LAGUARDIA APRT LGT RAIN 50 47 89 NE13G18 30.11R FOG KENNEDY INTL DRIZZLE 51 48 89 NE14 30.12R FOG NEWARK/LIBERTY LGT RAIN 51 49 92 NE10G18 30.11R FOG BRNX BOT. GARD N/A 48 46 93 NE3 30.11F TETERBORO LGT RAIN 50 46 87 NE8 30.11R $$ NYZ177-179-078>081-021200- LONG ISLAND NEW YORK CITY SKY/WX TMP DP RH WIND PRES REMARKS FARMINGDALE CLOUDY 50 47 89 NE13 30.10R ISLIP LGT RAIN 50 47 89 NE14G23 30.07F SHIRLEY CLOUDY 50 48 93 NE8 30.10S WESTHAMPTON CLOUDY 51 50 96 NE13 30.10F FOG MONTAUK POINT N/A 50 47 89 N10G18 30.11F $$ NYZ052-065-067-021200- HUDSON VALLEY CITY SKY/WX TMP DP RH WIND PRES REMARKS WHITE PLAINS CLOUDY 48 46 93 N7 30.10S FOG NEWBURGH LGT RAIN 48 48 100 NE9 30.14S FOG MONTGOMERY RAIN 49 48 97 NE8 30.13S FOG POUGHKEEPSIE CLOUDY 49 46 90 N7 30.14S ALBANY CLOUDY 50 47 89 CALM 30.16F $$ NJZ001-105-106-008-010-013-015-019>022-104-021200- NEW JERSEY CITY SKY/WX TMP DP RH WIND PRES REMARKS NEWARK/LIBERTY LGT RAIN 51 49 92 NE10G18 30.11R FOG TETERBORO LGT RAIN 50 46 87 NE8 30.11R CALDWELL CLOUDY 49 46 90 NE6 30.13R MORRISTOWN LGT RAIN 55 54 94 NE7 30.12R FOG SOMERVILLE LGT RAIN 51 47 86 N5 30.10R SUSSEX LGT RAIN 48 45 89 NE8 30.13S ANDOVER N/A 48 47 96 NE6 30.11S TRENTON CLOUDY 50 48 93 NE10 30.10R MILLVILLE LGT RAIN 55 54 96 NE8 30.06R FOG ATLANTIC CITY CLOUDY 54 53 97 NE12 30.06R FOG WRIGHTSTOWN LGT RAIN 52 52 100 NE12 30.07R FOG TOMS RIVER CLOUDY N/A N/A N/A NE12 30.08R BELMAR CLOUDY 52 45 76 NE12 30.09S $$ PAZ047>061-062-071-021200- EASTERN PENNSYLVANIA CITY SKY/WX TMP DP RH WIND PRES REMARKS PHILADELPHIA LGT RAIN 53 50 89 NE13 30.09R FOG ALLENTOWN CLOUDY 51 47 86 E10 30.10R SCRANTON LGT RAIN 51 48 89 E5 30.10S $$ CTZ002-004>006-009-010-012-RIZ004-006-007-MAZ004-011-015-021200- SOUTHERN NEW ENGLAND IN CT CITY SKY/WX TMP DP RH WIND PRES REMARKS BRADLEY INTL LGT RAIN 48 45 89 N12 30.15F FOG HARTFORD LGT RAIN 48 45 89 N12 30.15F DANBURY CLOUDY 48 43 82 NE6 30.14R WTRBRY/OXFORD LGT RAIN 46 39 76 NE12G18 30.13S FOG BRIDGEPORT LGT RAIN 50 47 89 NE13 30.12S MERIDEN LGT RAIN 49 45 86 N10G16 30.14S NEW HAVEN LGT RAIN 49 46 90 N12 30.11S FOG CHESTER RAIN 46 46 100 NE9 30.13S GROTON LGT RAIN 49 46 90 N10 30.11F WILLIMANTIC LGT RAIN 48 45 89 N8 30.15S IN RI CITY SKY/WX TMP DP RH WIND PRES REMARKS PROVIDENCE LGT RAIN 48 46 93 N10 30.16R FOG BLOCK ISLAND CLOUDY 48 45 87 NE14G23 30.11F WESTERLY LGT RAIN 48 46 93 N8 30.11F FOG IN MA CITY SKY/WX TMP DP RH WIND PRES REMARKS BOSTON LGT RAIN 47 45 93 NE12 30.19R WORCESTER HVY RAIN 44 42 93 NE10 30.16R FOG WESTFIELD LGT RAIN 47 44 90 N8 30.17F PROVINCETOWN CLOUDY 52 46 82 NE10G20 30.14R NANTUCKET CLOUDY 54 51 90 N16 30.09S FOG $$ ANZ330-335-338-340-345-350-353-355-021200- COASTAL MARINE OBSERVATIONS STATION/POSITION TIME SKY/WX TEMP WIND PRES VSBY WAVE AIR SEA DIR/SP/G HT/PER (UTC) (F) (DEG/KT/KT) (MB) (MI) (FT/S) NY HARB ENTRANCE 1050 52 56 30/ 16/ 17 1018.4 5/ 7 4S FIRE IS 1003 55 N/A 4/ 6 20S FIRE ISLAND 1050 53 58 50/ 21/ 25 1017.2 6/ 6 GREAT SOUTH BAY 1000 52 66 40/ 14/ 17 N/A 23SW MTP 1050 52 56 40/ 19/ 23 1017.8 5/ 6 HUDSON CANYON NOT AVBL KINGS POINT 1000 50 57 40/ 5/ 11 1018.7 CENTRAL LI SOUND NOT AVBL EASTERN LI SOUND 1000 49 30/ 12/ 14 N/A ROBBINS REEF 1000 51 30/ 16/ 19 1017.7 $$ >>>>>>>>>>>>>>>>>>>>>>>>>>>> KEY <<<<<<<<<<<<<<<<<<<<<<<<<<< > < > SKY/WX - SKY CONDITION/PRESENT WEATHER < > TMP - TEMPERATURE IN FAHRENHEIT < > DP - DEWPOINT IN FAHRENHEIT < > RH - RELATIVE HUMIDITY IN PERCENT < > WIND - DIRECTION AND SPEED IN MPH < > PRES - MEAN SEA LEVEL PRESSURE IN INCHES OF HG < > WCI - WIND CHILL INDEX < > VSB - VISIBILITY IN MILES < > HX - HEAT INDEX < > TC - TEMPERATURE IN CELSIUS < > VRB - VARIABLE WIND DIRECTION < > < >>>>>>>>>>>>>>>>>>>>>>>>>>>> KEY <<<<<<<<<<<<<<<<<<<<<<<<<<<

USA.gov is the U.S. government's official web portal to all federal, state and local government web resources and services.